FW7617 Weather Reports


Display with metric or nautical units.
time (UTC)temp
F
wind
direction
speed
MPH
gust
MPH
rain 1hr
in
rain 24hr
in
rain mn
in
humidity
%
barometer
mb
20260504184517 73 256 5.0 13.0 0.00 0.00 0.00 32 1010.1
20260504183517 72 257 5.0 10.0 0.00 0.00 0.00 33 1010.3
20260504182517 71 242 5.0 9.0 0.00 0.00 0.00 32 1010.4
20260504181517 72 220 6.0 13.0 0.00 0.00 0.00 30 1010.6
20260504180517 72 261 4.0 10.0 0.00 0.00 0.00 33 1010.8
20260504175518 71 271 3.0 8.0 0.00 0.00 0.00 34 1010.8
20260504174518 70 250 5.0 9.0 0.00 0.00 0.00 32 1010.9
20260504173558 70 256 6.0 12.0 0.00 0.00 0.00 32 1011.0
20260504172535 70 261 4.0 10.0 0.00 0.00 0.00 33 1011.2
20260504171515 70 251 6.0 10.0 0.00 0.00 0.00 33 1011.3
20260504170535 70 230 4.0 9.0 0.00 0.00 0.00 34 1011.4
20260504150537 66 253 6.0 16.0 0.00 0.00 0.00 34 1012.7
20260504140536 64 257 5.0 10.0 0.00 0.00 0.00 41 1012.9
20260504130516 60 267 2.0 7.0 0.00 0.00 0.00 56 1013.7
20260504110515 43 68 2.0 3.0 0.00 0.00 0.00 71 1014.2
20260504100517 40 79 1.0 2.0 0.00 0.00 0.00 77 1014.0
20260504081518 42 6 1.0 2.0 0.00 0.01 0.00 72 1013.7
20260504080515 42 9 1.0 2.0 0.00 0.01 0.00 72 1013.7
20260504050516 45 20 2.0 4.0 0.00 0.01 0.00 62 1013.3
20260504045536 45 32 2.0 4.0 0.00 0.01 0.00 62 1013.3
20260504044536 45 24 2.0 4.0 0.00 0.01 0.00 62 1013.2
20260504043516 45 35 1.0 4.0 0.00 0.01 0.00 64 1013.2
20260504042516 45 28 2.0 5.0 0.00 0.01 0.00 64 1013.2
20260504041537 45 14 2.0 4.0 0.00 0.01 0.00 65 1013.0
20260504040537 45 16 3.0 4.0 0.00 0.01 0.00 61 1013.0
20260504035517 45 14 1.0 4.0 0.00 0.01 0.01 60 1012.8
20260504034517 45 21 2.0 3.0 0.00 0.01 0.01 62 1012.8
20260504033537 46 24 2.0 4.0 0.00 0.01 0.01 59 1012.7
20260504032517 46 53 1.0 3.0 0.00 0.01 0.01 58 1012.7
20260504031518 46 13 1.0 3.0 0.00 0.01 0.01 59 1012.7
20260504030515 46 46 1.0 2.0 0.00 0.01 0.01 60 1012.6
20260504025518 46 59 1.0 3.0 0.00 0.01 0.01 59 1012.7
20260504024618 46 67 1.0 2.0 0.00 0.01 0.01 58 1012.6
20260504023515 47 41 1.0 2.0 0.00 0.01 0.01 56 1012.6
20260504022535 47 79 1.0 3.0 0.00 0.01 0.01 55 1012.6
20260504021516 47 44 1.0 3.0 0.00 0.01 0.01 55 1012.6
20260504020516 47 40 1.0 2.0 0.00 0.01 0.01 53 1012.6
20260504015516 48 6 1.0 2.0 0.00 0.01 0.01 53 1012.6
20260504014516 48 329 0.0 2.0 0.00 0.01 0.01 52 1012.5
20260504013516 48 3 1.0 2.0 0.00 0.01 0.01 52 1012.4
20260504012516 49 1 1.0 3.0 0.00 0.01 0.01 51 1012.3
20260504011556 49 4 1.0 2.0 0.00 0.01 0.01 50 1012.1
20260504010517 50 30 1.0 2.0 0.00 0.01 0.01 50 1012.0
20260504005517 50 26 1.0 3.0 0.00 0.01 0.01 48 1012.0
20260504004517 51 62 1.0 3.0 0.00 0.01 0.01 49 1011.9
20260504003517 53 58 1.0 3.0 0.00 0.01 0.01 43 1011.7
20260504002537 54 5 1.0 2.0 0.00 0.01 0.01 40 1011.5
20260504001518 55 356 1.0 2.0 0.00 0.01 0.01 39 1011.3
20260504000518 56 357 1.0 2.0 0.00 0.01 0.01 37 1011.2
20260503235515 57 7 1.0 2.0 0.00 0.01 0.01 36 1011.1
20260503234515 58 349 1.0 3.0 0.00 0.01 0.01 35 1011.1
20260503233515 59 284 1.0 4.0 0.00 0.01 0.01 33 1011.0
20260503232515 59 272 2.0 5.0 0.00 0.01 0.01 32 1010.8
20260503231516 59 265 2.0 4.0 0.00 0.01 0.01 31 1010.8
20260503230515 60 248 3.0 8.0 0.00 0.01 0.01 29 1010.8
20260503225516 60 256 2.0 6.0 0.00 0.01 0.01 29 1010.6
20260503224516 60 264 2.0 5.0 0.00 0.01 0.01 31 1010.7
20260503223536 60 258 2.0 6.0 0.00 0.01 0.01 29 1010.7
20260503222517 61 256 3.0 7.0 0.00 0.01 0.01 29 1010.6
20260503221516 61 253 3.0 5.0 0.00 0.01 0.01 29 1010.6
20260503220537 61 264 3.0 5.0 0.00 0.01 0.01 30 1010.6
20260503215517 61 249 4.0 9.0 0.00 0.01 0.01 28 1010.6
20260503214517 62 247 4.0 9.0 0.00 0.01 0.01 29 1010.6
20260503213517 62 273 2.0 5.0 0.00 0.01 0.01 30 1010.6
20260503212535 62 306 2.0 4.0 0.00 0.01 0.01 36 1010.6
20260503211516 62 269 3.0 7.0 0.00 0.01 0.01 33 1010.6
20260503210516 62 266 4.0 13.0 0.00 0.01 0.01 32 1010.6
20260503205516 61 269 4.0 8.0 0.00 0.01 0.01 35 1010.6
20260503204515 59 284 2.0 8.0 0.00 0.01 0.01 33 1010.7
20260503203515 60 255 4.0 11.0 0.00 0.01 0.01 34 1010.7
20260503202515 62 278 3.0 7.0 0.00 0.01 0.01 33 1010.7
20260503201516 62 251 3.0 8.0 0.00 0.01 0.01 31 1010.7
20260503200516 61 259 3.0 8.0 0.00 0.01 0.01 33 1010.9
20260503195516 62 257 3.0 7.0 0.00 0.01 0.01 34 1010.9
20260503194536 61 247 5.0 9.0 0.00 0.01 0.01 30 1010.9
20260503193536 60 286 2.0 9.0 0.00 0.01 0.01 35 1011.1
20260503192517 61 266 4.0 7.0 0.00 0.01 0.01 34 1011.1
20260503191517 60 284 4.0 10.0 0.00 0.01 0.01 35 1011.1
20260503190517 59 323 3.0 8.0 0.00 0.01 0.01 36 1011.2
20260503185517 60 304 4.0 9.0 0.00 0.01 0.01 38 1011.3